Regional Weather Roundup
Issued by NWS

Home | Current Version | Previous Version | Graphics & Text | Print | Product List | Glossary On
Versions: 1 2 3 4 5 6 7 8 9 10 11 12 13 14 15 16 17 18 19 20 21 22 23 24 25 26 27 28 29 30 31 32 33 34 35 36 37 38 39 40 41 42 43 44 45 46 47 48 49 50
000
ASUS43 KTOP 241559
RWRKS

WEATHER ROUNDUP FOR KANSAS
NATIONAL WEATHER SERVICE GOODLAND KS
1100 AM CDT TUE MAY 24 2016

NOTE:  "FAIR" INDICATES FEW OR NO CLOUDS BELOW 12,000 FEET WITH NO
SIGNIFICANT WEATHER AND/OR OBSTRUCTIONS TO VISIBILITY.

KSZ001>006-013>018-027>032-041>047-241700-
NORTHWEST KANSAS

CITY           SKY/WX    TMP DP  RH WIND       PRES   REMARKS
GOODLAND       CLOUDY    64  55  72 SE16      29.93F
HAYS           CLOUDY    66  52  59 SE20G25   29.92F
HILL CITY      CLOUDY    65  57  75 SE9       29.94R
RUSSELL        CLOUDY    66  58  75 SE18      29.92R
$$

KSZ061>065-074>080-084>089-241700-
SOUTHWEST KANSAS

CITY           SKY/WX    TMP DP  RH WIND       PRES   REMARKS
DODGE CITY     CLOUDY    66  64  93 E17G23    29.90S
ELKHART          N/A     71  57  61 W6          N/A
GARDEN CITY    PTSUNNY   70  65  84 E20       29.87S
GREAT BEND     CLOUDY    70  54  56 E21G26    29.92F
LIBERAL        SUNNY     79  63  57 SW7       29.87S
$$

KSZ066>073-081>083-090>101-241700-
SOUTHEAST KANSAS

CITY           SKY/WX    TMP DP  RH WIND       PRES   REMARKS
CHANUTE        CLOUDY    66  63  90 N13       29.97R
COFFEYVILLE    CLOUDY    75  69  81 SW6       29.93F
HUTCHINSON     PTSUNNY   72  59  63 E18G26    29.94S
MEDICINE LODGE   N/A     68  64  87 MISG      29.92R
NEWTON         CLOUDY    64  55  72 E12       29.98S
PARSONS        CLOUDY    71  69  93 N6        29.95S
WICHITA INTL   CLOUDY    69  63  81 E12       29.95S
WICHITA JABRA  TSTM      63  61  93 E9        29.94F
WICHITA MCCONL CLOUDY    66  59  77 E16       29.95S
WINFIELD       CLOUDY    75  68  78 E6        29.94S
$$

KSZ007>012-019>026-033>040-048>060-102>105-241700-
NORTHEAST KANSAS

CITY           SKY/WX    TMP DP  RH WIND       PRES   REMARKS
CONCORDIA      MOSUNNY   68  59  73 SE17      29.91R
EMPORIA        SUNNY     70  60  70 N8        29.95F
LAWRENCE       LGT RAIN  66  62  87 NE13      29.91F
MANHATTAN      CLOUDY    69  68  96 E5        29.94F
OLATHE IND     CLOUDY    69  63  81 NW13      29.98F
OLATHE EXE     CLOUDY    67  63  87 N9        29.98S
SALINA         CLOUDY    70  60  70 SE21G30   29.90F
TOPEKA BILLARD   N/A     67  62  84 VRB3      29.92F
TOPEKA FORBES  CLOUDY    68  61  78 N6        29.93F
$$




USA.gov is the U.S. government's official web portal to all federal, state and local government web resources and services.